Regional Weather Roundup
Issued by NWS

Home | Current Version | Previous Version | Graphics & Text | Print | Product List | Glossary On
Versions: 1 2 3 4 5 6 7 8 9 10 11 12 13 14 15 16 17 18 19 20 21 22 23 24 25 26 27 28 29 30 31 32 33 34 35 36 37 38 39 40 41 42 43 44 45 46 47 48 49 50
000
ASUS44 KMEG 020300
RWRTN
TENNESSEE HOURLY STATE WEATHER ROUNDUP
NATIONAL WEATHER SERVICE MEMPHIS TN
1000 PM CDT WED OCT 01 2014

TNZ002-004-019-021-049-052-054-088>092-020400-
WEST TENNESSEE

CITY           SKY/WX    TMP DP  RH WIND       PRES   REMARKS
MEMPHIS INTL   PTCLDY    79  62  56 SE7       29.91S
NWS MEMPHIS      N/A     76 N/A N/A MISG        N/A
JACKSON        MOCLDY    72  62  71 S3        29.93F
DYERSBURG      CLEAR     75  55  50 S5        29.93R
UNION CITY     CLEAR     66  63  88 S5        29.91R
PARIS          CLEAR     68  59  73 CALM      29.95R
LEXINGTON      CLEAR     64  63  94 CALM      29.95S
SAVANNAH       PTCLDY    66  64  94 CALM      29.96S
$$

TNZ008-025-027-028-033-062-065-066-020400-
NORTH MIDDLE TENNESSEE

CITY           SKY/WX    TMP DP  RH WIND       PRES   REMARKS
NASHVILLE      PTCLDY    71  58  63 S5        29.98S
CLARKSVILLE    CLEAR     70  59  68 SE3       29.95S
COOKEVILLE     CLEAR     57  55  94 CALM      30.02S
CROSSVILLE     CLEAR     64  58  80 CALM      30.08R
$$

TNZ061-075-076-078-094-096-097-020400-
SOUTH MIDDLE TENNESSEE

CITY           SKY/WX    TMP DP  RH WIND       PRES   REMARKS
FAYETTEVILLE   CLEAR     68  57  68 SE6       30.01S
TULLAHOMA      CLEAR     63  57  82 CALM      30.03S
WINCHESTER     CLEAR     64  61  88 CALM      30.02S
COLUMBIA       CLEAR     64  64 100 SE3       29.97S
SHELBYVILLE    CLEAR     66  61  82 CALM      30.01S
$$

TNZ017-018-042-046-047-020400-
NORTHEAST TENNESSEE

CITY           SKY/WX    TMP DP  RH WIND       PRES   REMARKS
TRI CITIES     CLEAR     59  53  80 CALM      30.08R
ELIZABETHTON   CLEAR     57  52  82 NE3       30.09S
$$

TNZ012-013-036-069-073-074-020400-
CENTRAL EAST TENNESSEE

CITY           SKY/WX    TMP DP  RH WIND       PRES   REMARKS
KNOXVILLE      CLEAR     67  56  67 CALM      30.03R
OAK RIDGE      CLEAR     62  57  83 CALM      30.05S
GATLINBURG     CLEAR     61  57  88 CALM      30.05R
MORRISTOWN     CLEAR     63  55  77 CALM      30.07R
$$

TNZ083-085-099-020400-
SOUTHEAST TENNESSEE

CITY           SKY/WX    TMP DP  RH WIND       PRES   REMARKS
CHATTANOOGA    CLEAR     69  61  75 CALM      30.02R
$$

SKY/WX REPORTED AS FAIR MEANS FEW OR NO CLOUDS BELOW
12 THOUSAND FEET.



USA.gov is the U.S. government's official web portal to all federal, state and local government web resources and services.